Location: Vihti�l�
(61.3833°N, 23.0667°E)
Time: 04:09:10
(UTC+00:00)

Resurs 1-4 Rocket - Pass Details

Date: 29 November 2020
Orbit: 799 x 815 km, 98.6° (Epoch: 19 January)

Event Time Altitude Azimuth Distance (km) Brightness Sun altitude
Rises 04:34:19 0° 32° (NNE) 3,353 5.5 -16.7°
Reaches altitude 10° 04:39:02 10° 354° (N) 2,415 4.4 -16.1°
Maximum altitude 04:39:54 10° 344° (NNW) 2,386 4.3 -16.0°
Enters shadow 04:40:36 10° 337° (NNW) 2,404 4.2 -16.0°
